Location: Bougoudala
(13.2282°N, 4.9477°W)
Time: 13:39:12
(UTC+00:00)

Cosmos 1869 - Pass Details

Date: 29 January 2020
Orbit: 525 x 558 km, 82.5° (Epoch: 24 February)

Event Time Altitude Azimuth Distance (km) Brightness Sun altitude
Rises 19:48:07 0° 349° (NNW) 2,670 6.8 -21.7°
Reaches altitude 10° 19:50:18 10° 344° (NNW) 1,775 5.9 -22.2°
Maximum altitude 19:54:06 54° 267° (W) 647 3.9 -23.1°
Drops below altitude 10° 19:57:53 10° 189° (S) 1,762 6.1 -24.0°
Sets 20:00:03 0° 185° (S) 2,648 7.0 -24.5°
